Wetbulb
41.37 41.18 40.99 40.87 41.14 41.60 41.82 41.60 40.67 40.74 41.06 40.86 39.99 39.65 39.46 39.19 38.89 38.86 38.67 38.49 38.26 37.96 37.73 37.54 37.30 36.48 35.74 35.44 35.38 35.14 35.03 34.75 34.67 34.52 34.38 34.48 34.41 34.27 34.15 33.95 33.66 33.52 33.39 33.44 33.26 33.04 32.83 32.43 32.74 33.42 33.75 33.13 32.37 31.95 31.68 31.83 31.52 31.51 31.59 31.37 31.21 30.53 29.87 29.42 29.10 29.11 29.33 29.53 29.98
40.94 40.36 39.73 39.17 39.69 40.83 41.60 41.17 40.94 40.77 40.83 40.91 40.22 39.51 39.05 39.12 38.78 38.26 37.77 37.40 37.74 37.70 37.47 37.53 36.30 35.57 35.45 35.37 35.23 35.04 34.87 34.66 34.63 34.50 34.38 34.16 34.02 33.95 33.80 33.53 33.33 33.15 33.10 33.10 32.94 32.81 32.59 32.05 32.27 32.98 33.39 33.18 32.14 31.61 31.55 31.80 31.49 31.17 30.81 30.28 30.49 30.44 30.21 29.87 29.39 29.34 29.57 30.01 29.93
40.89 40.66 40.55 40.75 40.99 41.34 41.63 41.39 40.77 40.11 39.73 39.83 39.79 39.44 39.10 38.99 38.79 38.45 37.96 37.29 36.68 36.59 36.69 36.83 35.59 35.28 35.52 35.52 35.38 35.20 34.96 34.70 34.65 34.44 34.19 33.91 33.89 33.81 33.62 33.25 33.21 33.05 32.86 32.68 32.43 32.38 32.28 31.70 32.09 32.64 33.07 33.13 31.63 31.24 31.43 31.43 31.26 30.88 30.45 29.98 30.50 30.72 30.88 31.15 30.03 29.74 30.13 30.54 29.91
40.96 41.01 41.06 41.03 40.96 40.72 40.79 41.13 40.20 39.57 39.34 39.56 38.80 38.49 38.61 38.80 38.61 38.19 37.34 36.14 35.96 35.91 35.79 35.30 35.01 35.13 35.29 35.30 35.47 35.37 34.96 34.60 34.59 34.28 33.91 33.62 33.54 33.49 33.34 33.07 32.99 32.83 32.68 32.51 32.22 31.93 31.70 31.61 32.33 32.69 32.48 31.33 30.55 30.71 31.20 31.77 30.81 30.71 30.79 30.51 30.75 30.53 30.59 30.99 30.55 30.78 31.10 30.83 29.98
40.98 40.99 41.12 40.96 40.76 40.52 40.36 40.20 39.77 39.53 39.42 39.41 39.10 38.76 38.38 37.85 37.54 37.06 36.59 36.26 36.26 36.14 35.55 34.54 34.68 34.59 34.65 35.17 35.51 35.42 35.01 34.53 34.15 33.90 33.70 33.36 33.30 33.07 33.00 32.89 32.68 32.40 32.26 32.22 32.02 31.88 31.75 31.47 32.48 32.48 31.97 31.08 31.28 30.97 30.49 30.18 30.05 30.04 30.40 31.09 30.88 30.78 30.67 30.63 30.82 30.91 30.95 30.69 30.21
40.71 40.68 40.76 40.72 40.56 40.35 40.24 40.08 39.81 39.53 39.22 38.91 38.19 37.65 37.53 38.07 37.71 37.47 37.04 36.74 36.10 35.51 34.96 34.26 33.98 33.80 34.06 34.96 35.03 34.89 34.68 34.31 33.84 33.66 33.38 33.10 32.92 32.84 32.73 32.77 32.27 31.89 31.74 31.86 31.73 31.51 31.24 30.91 32.26 32.38 31.95 31.76 30.60 29.87 29.63 29.80 29.71 29.49 29.47 30.06 30.56 30.62 30.44 30.02 30.53 30.66 30.33 29.73 29.25
41.09 41.02 40.83 40.59 40.40 40.20 40.08 39.84 39.60 39.18 38.71 38.15 37.49 36.94 36.46 36.57 36.35 36.14 35.91 35.99 35.83 35.46 35.05 34.79 34.51 34.35 34.24 34.31 34.27 34.29 34.10 33.71 33.48 33.31 33.13 32.95 32.79 32.44 32.07 32.00 31.64 31.55 31.52 31.37 31.15 30.82 30.45 30.33 31.82 32.04 31.86 31.79 31.68 30.44 29.17 29.05 29.23 29.10 28.94 29.00 30.09 30.36 29.90 28.65 29.57 29.89 29.47 28.33 28.07
41.57 41.31 40.93 40.66 40.37 40.19 40.04 40.08 39.89 39.42 38.95 38.49 37.88 37.18 36.48 36.27 36.13 35.92 35.74 35.53 35.52 35.28 35.24 35.24 35.18 34.88 34.40 33.81 33.68 33.62 33.46 33.09 32.86 32.90 32.80 32.79 32.58 32.08 31.49 31.14 31.00 31.02 31.02 30.94 30.68 30.33 30.24 30.70 31.42 31.08 30.61 30.98 31.36 30.39 29.09 28.64 28.59 28.38 28.20 28.19 29.60 29.67 29.08 28.18 27.92 28.31 28.52 27.64 27.45
41.09 40.79 40.46 40.24 40.25 40.22 40.11 40.12 39.93 39.38 38.75 38.22 37.80 37.23 36.74 36.42 36.20 35.76 35.38 35.30 34.98 34.79 34.88 35.25 35.28 35.02 34.49 33.95 33.70 33.35 33.09 32.60 32.47 32.43 32.53 32.42 32.11 31.69 31.19 30.67 30.51 30.44 30.55 30.58 30.41 30.07 30.12 30.72 30.76 30.36 30.10 30.71 30.39 29.56 28.67 28.68 28.46 28.20 28.07 28.44 28.84 28.95 28.63 27.98 27.55 27.59 27.67 26.98 26.91
40.66 40.34 40.13 40.02 40.03 39.88 39.81 39.81 39.77 39.37 38.79 38.25 37.70 37.12 36.63 36.02 36.02 35.78 35.38 35.10 34.60 34.65 34.91 35.29 35.30 35.10 34.71 34.17 33.69 33.30 32.90 32.51 32.24 32.13 32.03 31.78 31.56 31.28 30.94 30.51 30.28 30.24 30.21 30.29 30.04 29.93 29.76 30.01 29.11 28.62 28.44 28.59 28.18 28.15 28.34 28.64 28.40 28.06 28.04 28.81 28.11 27.28 26.71 26.70 27.07 27.06 26.87 26.16 26.42
40.72 40.44 40.20 40.02 39.76 39.42 39.26 39.57 39.41 39.25 38.95 38.57 37.99 37.28 36.76 36.22 36.43 36.20 35.58 34.88 34.86 35.03 35.18 35.14 35.26 34.90 34.38 33.75 33.36 33.08 32.93 32.51 32.33 32.16 31.84 31.42 30.92 30.78 30.69 30.44 30.24 30.07 30.03 30.02 29.86 29.44 29.13 29.00 28.13 27.84 27.92 27.79 27.71 27.87 28.17 28.33 28.01 27.66 27.34 27.02 26.44 25.97 25.79 26.25 26.14 26.05 25.85 25.39 25.85
41.03 40.61 40.26 39.97 39.52 39.26 39.18 39.49 39.11 38.79 38.71 38.49 38.19 37.84 37.49 37.30 37.34 36.65 35.91 35.45 35.41 35.06 34.70 34.63 34.99 34.66 33.96 33.13 32.90 32.70 32.60 32.84 32.50 32.16 31.72 31.25 30.72 30.49 30.51 30.42 30.37 30.19 30.10 30.19 29.74 29.17 28.59 28.08 27.65 27.49 27.35 27.19 27.13 27.29 27.54 27.70 27.40 27.19 26.83 26.56 25.99 25.74 25.65 25.73 25.54 25.34 25.14 25.11 25.51
41.09 40.59 40.05 39.69 39.24 39.24 39.41 39.41 38.76 38.29 38.17 38.26 38.15 38.23 38.15 38.15 37.83 37.02 36.15 35.61 34.83 33.77 33.21 33.36 34.23 34.28 33.78 33.03 32.76 32.60 32.53 32.42 32.13 31.78 31.24 30.97 30.49 30.39 30.37 30.42 30.37 30.35 30.23 30.12 29.58 28.98 28.45 28.02 27.73 27.44 27.09 27.00 26.75 26.88 27.13 27.24 26.80 26.52 26.30 26.07 25.82 25.68 25.65 25.73 25.34 25.11 25.00 25.08 25.17
40.85 40.47 39.92 39.48 39.26 39.16 39.09 38.87 38.15 37.76 37.64 37.72 37.80 37.96 38.07 38.11 37.79 36.95 35.96 35.04 33.91 33.08 32.64 32.61 32.98 33.32 33.56 33.47 33.02 32.77 32.41 31.94 31.62 31.36 31.04 30.62 30.39 30.34 30.42 30.51 30.51 30.36 30.12 29.76 29.37 28.93 28.45 27.94 27.60 27.22 27.06 26.87 26.43 26.37 26.45 26.57 26.21 26.00 25.85 25.71 25.76 25.71 25.65 25.62 25.23 25.09 25.09 25.20 25.00
40.47 40.16 39.87 39.43 39.14 38.78 38.49 38.15 37.81 37.49 37.21 37.06 36.99 37.19 37.42 37.53 36.93 36.29 35.59 34.58 33.69 33.20 32.94 32.67 32.42 32.73 33.35 33.95 33.57 33.05 32.36 31.78 31.60 31.30 31.11 30.74 30.54 30.47 30.53 30.58 30.56 30.24 30.01 29.78 29.32 29.03 28.77 28.18 27.62 27.35 27.06 26.60 26.23 25.88 25.75 25.89 25.76 25.77 25.78 25.78 25.80 25.80 25.69 25.71 25.63 25.46 25.35 25.34 24.91
40.07 39.86 39.60 39.34 38.76 38.33 37.81 37.51 37.43 37.23 36.91 36.71 36.21 36.22 36.26 36.38 35.95 35.65 35.21 34.63 34.01 33.52 33.14 32.94 32.61 32.33 32.48 33.15 33.54 33.20 32.58 32.12 31.82 31.65 31.36 30.90 30.47 30.32 30.35 30.41 30.16 30.04 29.78 29.60 29.20 29.12 29.07 28.59 28.00 27.62 27.09 26.60 25.94 25.49 25.28 25.61 25.75 25.85 25.95 26.08 26.09 26.09 26.16 26.21 26.07 25.85 25.54 25.28 24.68
39.76 39.63 39.45 39.15 38.47 37.88 37.40 37.09 37.05 36.89 36.61 36.08 35.59 35.38 35.34 35.38 35.38 35.26 34.98 34.70 34.20 33.83 33.40 32.97 32.39 32.02 31.84 31.88 32.32 32.51 32.55 32.33 32.03 31.75 31.38 30.90 30.35 30.05 30.00 30.01 29.81 29.60 29.36 28.97 28.50 28.38 28.46 28.35 28.21 27.78 27.22 26.72 26.16 25.84 25.84 26.00 25.75 25.85 26.03 26.26 26.31 26.33 26.30 26.38 26.02 25.71 25.22 24.80 24.28
39.61 39.44 39.15 38.87 38.21 37.73 37.36 36.99 36.76 36.52 36.19 35.60 35.14 34.92 35.00 35.03 35.08 35.14 34.98 34.76 34.52 34.20 33.62 33.01 32.24 31.96 31.86 31.85 31.55 31.66 31.91 32.25 31.99 31.71 31.28 30.74 30.26 30.03 29.91 29.76 29.63 29.47 29.13 28.55 27.97 27.76 27.89 28.08 28.16 27.70 27.06 26.64 26.21 26.23 26.23 26.12 25.62 25.48 25.68 25.84 26.03 26.05 26.02 25.90 25.54 25.03 24.49 24.12 23.98
39.64 39.33 39.06 38.62 38.28 37.92 37.51 37.02 36.80 36.50 36.02 35.47 34.98 34.74 34.74 34.77 34.99 35.06 34.98 34.78 34.71 34.40 33.95 33.21 32.41 31.99 31.90 31.87 31.61 31.40 31.52 31.79 31.89 31.60 31.16 30.55 30.27 30.20 30.10 29.92 29.71 29.45 29.13 28.42 27.89 28.00 28.29 28.50 28.10 27.57 26.90 26.52 26.11 25.89 25.70 25.31 24.88 24.85 25.03 25.22 25.46 25.52 25.46 25.27 24.84 24.27 23.88 23.77 23.80
39.86 39.52 39.10 38.81 38.50 38.17 37.81 37.33 36.99 36.62 36.29 35.59 35.18 34.92 34.60 34.40 34.57 34.70 34.72 34.64 34.46 34.40 34.15 33.48 32.71 32.23 31.93 31.87 31.68 31.47 31.25 31.20 31.53 31.51 31.12 30.56 30.49 30.52 30.57 30.36 30.22 29.80 29.20 28.55 28.42 28.34 28.24 27.84 27.60 27.19 26.84 26.45 25.88 25.27 24.86 24.41 24.20 24.25 24.38 24.51 24.73 24.93 24.88 24.68 24.40 24.06 23.89 23.79 23.86
39.87 39.52 39.20 38.87 38.32 37.96 37.58 37.21 36.73 36.29 35.92 35.56 35.15 34.85 34.44 34.08 34.08 34.26 34.43 34.36 34.36 34.22 33.90 33.35 32.93 32.54 32.31 31.93 31.74 31.50 31.16 30.81 31.39 31.41 31.22 31.02 31.05 31.10 31.09 31.07 31.10 30.31 29.26 28.50 28.82 28.56 27.92 27.16 26.97 26.59 26.29 25.79 25.14 24.67 24.16 23.64 23.56 23.63 23.74 23.70 23.93 24.17 24.26 24.18 24.21 24.21 24.18 24.25 24.12
39.42 39.03 38.60 38.13 37.51 37.03 36.62 36.36 35.85 35.59 35.34 35.12 34.82 34.52 34.25 34.04 33.94 34.10 34.21 34.21 34.27 34.17 33.95 33.56 33.12 32.73 32.45 32.08 31.81 31.54 31.09 30.78 31.37 31.58 31.55 31.55 31.53 31.37 31.38 31.95 31.59 30.62 29.52 28.90 28.61 28.11 27.49 26.81 26.37 26.04 25.58 24.64 23.98 23.75 23.64 23.68 23.25 23.03 23.14 23.17 23.35 23.62 23.91 24.06 24.26 24.45 24.68 24.69 24.10
38.74 38.20 37.78 37.20 36.55 36.14 35.81 35.56 35.45 35.38 35.20 34.90 34.63 34.40 34.16 34.03 33.97 33.95 34.12 34.15 34.32 34.44 34.35 34.01 33.55 32.99 32.56 32.23 32.05 31.75 31.34 31.07 31.45 31.73 31.85 32.08 32.08 32.07 32.09 32.46 31.94 30.99 29.76 28.56 28.13 27.43 26.64 25.99 25.53 25.04 24.44 23.45 22.88 22.77 23.15 23.87 23.52 23.13 22.81 22.90 23.08 23.40 23.81 24.27 24.50 24.73 24.93 25.05 24.00
38.01 37.51 37.12 36.65 36.33 36.04 35.83 35.61 35.68 35.54 35.31 34.90 34.45 34.24 34.00 33.99 33.86 33.83 33.87 33.90 34.13 34.51 34.52 34.16 33.87 33.39 32.90 32.52 32.52 32.19 31.80 31.46 31.49 31.65 31.77 31.82 31.98 32.15 32.41 32.62 32.34 31.77 30.80 29.05 29.10 28.44 27.27 25.61 24.62 23.95 23.31 22.55 22.24 22.38 22.81 23.52 23.30 23.24 23.21 23.04 23.16 23.36 23.68 24.09 24.46 25.01 25.29 24.80 23.61
37.69 37.19 36.94 36.93 36.61 36.29 35.97 35.86 35.79 35.43 35.02 34.52 34.08 33.88 33.86 33.89 33.83 33.68 33.61 33.49 33.63 33.88 34.15 34.11 33.84 33.55 33.21 32.60 32.63 32.38 32.08 31.77 31.77 31.61 31.53 31.27 31.09 30.96 30.88 30.91 30.92 30.91 30.72 30.21 32.17 32.07 30.42 27.95 26.36 24.53 22.87 22.05 22.37 22.78 23.18 23.45 23.33 23.39 23.36 23.51 23.56 23.50 23.59 23.88 24.35 24.84 24.90 24.09 22.71
37.48 37.16 36.94 36.93 36.78 36.39 36.11 35.94 35.54 35.05 34.36 33.73 33.59 33.57 33.71 33.78 33.60 33.54 33.59 33.26 33.10 33.17 33.40 33.55 33.28 33.21 33.05 32.70 32.39 32.17 32.11 31.99 32.08 32.04 31.81 31.45 31.06 30.62 30.12 29.89 30.74 31.04 31.26 32.15 33.55 33.43 32.51 31.57 29.82 26.72 23.79 22.22 22.50 22.79 22.89 22.83 23.24 23.42 23.59 23.53 23.51 23.54 23.48 23.61 23.81 24.12 24.14 23.63 22.21
37.41 37.01 36.80 36.78 36.67 36.25 35.76 35.39 34.70 34.07 33.62 33.25 33.29 33.37 33.32 33.22 33.02 33.05 33.13 33.04 32.73 32.58 32.50 32.43 32.33 32.32 32.42 32.55 32.52 32.58 32.58 32.54 32.79 32.92 32.75 32.39 31.76 31.25 30.63 30.17 31.21 31.57 31.82 33.08 33.60 33.52 33.10 32.88 31.80 29.52 26.58 23.43 23.01 22.77 22.50 22.33 22.89 23.35 23.44 23.24 23.16 23.17 23.21 23.27 23.52 23.73 23.59 23.06 22.05
37.34 36.94 36.57 36.64 36.18 35.65 35.03 34.30 33.71 33.20 32.85 32.64 32.71 32.74 32.70 32.76 32.82 32.84 32.77 32.74 32.43 32.10 31.76 31.60 31.64 31.82 32.14 32.51 32.48 32.74 33.02 33.23 33.62 33.73 33.57 33.08 32.47 31.85 31.49 31.23 31.95 32.36 32.80 33.50 33.58 33.45 33.23 33.05 32.55 31.40 29.17 25.45 23.67 23.15 22.91 22.45 22.59 22.47 22.39 22.40 22.44 22.68 23.04 23.41 23.85 23.74 23.31 22.61 21.87
37.33 36.86 36.35 36.03 35.40 34.82 34.19 33.35 32.90 32.54 32.37 32.38 32.44 32.82 33.01 33.04 33.10 32.97 32.82 32.87 32.57 32.38 32.22 32.25 32.10 32.20 32.36 32.52 32.41 32.50 32.82 33.05 33.72 33.67 33.28 32.70 32.46 32.19 32.17 32.86 33.45 32.98 32.76 33.85 33.58 33.47 33.28 33.08 32.65 32.15 30.94 28.59 24.75 22.80 22.00 21.86 21.83 21.65 21.60 21.87 22.20 22.70 23.20 23.83 24.06 23.78 22.98 22.19 21.65
37.11 36.39 35.72 35.29 34.65 34.17 33.64 32.70 32.32 32.22 32.26 32.38 32.98 33.28 33.35 33.19 33.22 33.09 32.99 32.93 32.85 32.72 32.79 32.98 32.84 32.84 32.74 32.65 32.64 32.67 33.02 33.35 33.51 33.20 33.00 32.73 32.90 32.93 33.06 33.95 34.20 33.15 32.49 33.88 33.65 33.52 33.42 33.15 32.71 32.29 31.53 30.33 26.11 23.06 21.41 21.32 21.29 21.30 21.56 22.01 22.45 22.92 23.56 24.20 24.08 23.74 22.91 21.65 21.25
36.59 35.65 34.80 34.30 34.22 33.70 33.12 32.38 32.25 32.44 32.70 32.88 33.24 33.33 33.33 33.10 33.09 33.00 33.12 33.18 33.07 32.84 32.83 33.16 33.20 33.10 32.94 32.99 33.13 33.30 33.53 33.84 33.77 33.86 33.83 33.96 33.78 33.58 33.80 34.73 34.34 33.03 32.24 34.03 33.81 33.67 33.57 33.38 32.88 32.35 31.74 31.00 26.88 23.54 21.44 21.21 20.97 21.15 21.65 22.24 22.86 23.44 24.02 24.34 23.99 23.33 22.47 21.53 21.17
35.78 34.77 33.94 33.76 33.71 33.22 32.74 32.39 32.54 32.80 33.05 33.41 33.41 33.40 33.31 33.16 33.32 33.52 33.73 33.82 33.73 33.60 33.60 33.79 33.73 33.73 33.65 33.61 33.54 33.87 34.30 34.67 35.33 35.67 35.58 35.00 34.49 34.05 34.08 34.61 33.96 32.49 31.91 34.07 33.85 33.74 33.69 33.43 32.89 32.45 31.87 31.17 27.38 24.04 21.68 21.15 21.06 21.32 21.89 22.56 23.26 23.70 24.11 24.74 23.74 22.94 22.20 21.68 21.46
34.94 34.20 33.66 33.66 33.36 32.97 32.58 32.66 32.94 33.28 33.50 33.82 33.79 33.71 33.61 33.49 33.94 34.22 34.32 34.18 34.30 34.48 34.55 34.58 34.42 34.40 34.56 34.48 34.23 34.38 34.75 35.35 35.94 36.17 36.18 35.84 35.28 34.79 34.47 34.60 33.99 32.72 32.24 34.04 33.80 33.73 33.68 33.38 32.98 32.45 31.92 31.30 27.22 23.69 21.41 21.03 21.32 21.77 22.24 22.77 23.35 23.67 23.76 23.68 22.99 22.47 22.08 21.75 21.49
34.36 33.90 33.61 33.47 32.97 32.58 32.57 32.76 33.16 33.70 34.11 34.35 34.23 34.19 34.16 34.07 34.42 34.44 34.38 34.17 34.39 34.64 34.87 35.03 35.10 35.11 35.10 35.16 34.93 34.89 34.95 35.40 36.42 36.74 36.55 36.49 35.93 35.31 34.67 34.22 33.13 32.76 33.06 33.84 33.72 33.61 33.51 33.27 32.82 32.31 31.83 31.22 26.73 23.36 21.38 21.12 21.47 21.86 22.42 22.83 23.00 23.04 23.02 22.74 22.51 22.22 22.00 21.80 21.53
34.45 34.20 33.76 32.96 32.54 32.37 32.48 32.90 33.36 33.89 34.33 34.46 34.35 34.45 34.53 34.60 34.61 34.44 34.31 33.99 34.14 34.43 34.71 34.84 35.16 35.13 35.17 35.16 35.19 35.33 35.39 35.60 36.24 36.15 35.82 35.95 35.71 34.85 33.74 32.67 31.17 31.93 33.30 33.70 33.55 33.44 33.34 33.04 32.72 32.26 31.54 29.89 25.52 22.60 21.24 21.12 21.41 21.86 22.21 22.45 22.51 22.59 22.69 22.60 22.34 22.17 22.03 21.98 21.83
34.55 34.13 33.59 32.62 32.56 32.56 32.71 33.10 33.66 34.06 34.30 34.46 34.51 34.63 34.65 34.60 34.36 34.31 34.13 33.85 33.98 34.28 34.57 34.71 34.78 34.71 34.69 34.84 35.21 35.68 36.14 36.57 36.03 35.57 35.27 35.02 34.38 33.43 32.32 31.01 30.11 31.37 33.01 33.67 33.48 33.25 33.11 32.89 32.55 32.19 31.00 27.80 23.72 21.71 21.06 21.00 21.24 21.50 21.71 21.86 22.10 22.63 23.07 23.02 22.70 22.47 22.21 21.93 21.85
33.98 33.65 33.28 33.05 33.07 33.11 33.25 33.73 33.99 34.13 34.19 34.29 34.37 34.38 34.47 34.46 34.43 34.36 34.34 34.34 34.52 34.60 34.55 34.56 34.32 34.22 34.17 34.30 34.80 35.66 36.42 36.25 35.62 35.16 34.75 34.00 33.42 32.51 31.48 30.22 30.02 30.78 32.08 33.41 33.36 33.18 32.96 32.72 32.38 31.76 29.94 25.93 22.42 21.00 20.79 20.61 20.61 20.91 21.24 21.54 21.92 22.45 22.65 22.45 22.27 22.11 21.92 21.66 22.21
33.12 33.20 33.42 33.57 33.39 33.42 33.62 34.07 34.23 34.20 34.09 34.02 34.10 34.16 34.09 34.06 34.30 34.41 34.54 34.44 34.75 34.69 34.42 34.02 33.63 33.39 33.20 33.57 33.74 34.34 34.80 34.47 34.19 33.81 33.42 33.15 32.94 32.31 31.41 30.34 30.33 30.41 31.18 32.89 33.15 33.06 32.84 32.69 32.35 31.45 29.00 24.25 21.74 20.61 20.29 20.17 20.14 20.50 20.91 21.12 21.59 21.83 21.77 21.24 20.97 20.95 21.15 21.48 24.63
32.61 32.82 33.31 33.45 33.32 33.38 33.67 33.96 34.02 33.97 33.91 33.78 33.67 33.69 33.74 33.77 34.22 34.69 34.98 34.67 34.74 34.58 34.06 33.49 33.25 32.86 32.58 32.67 32.51 32.62 32.72 32.75 32.86 32.70 32.60 32.50 32.38 32.30 31.71 30.67 30.32 30.01 30.53 32.41 33.03 32.98 32.79 32.69 32.23 31.51 29.37 24.83 21.59 20.35 20.11 19.90 19.82 19.91 20.14 20.44 20.79 20.82 20.53 20.11 20.05 20.21 20.56 21.04 27.25
32.80 32.97 33.29 33.33 33.32 33.48 33.79 34.00 33.77 33.65 33.63 33.64 33.59 33.63 33.81 33.95 34.43 35.20 35.45 34.88 34.69 34.34 33.86 33.51 33.36 32.94 32.44 31.90 32.25 32.21 32.14 31.91 32.12 32.31 32.34 31.97 32.30 32.94 32.79 30.77 30.02 29.44 29.85 31.97 32.91 33.06 32.79 32.65 32.25 31.70 29.80 25.06 21.44 20.08 19.90 19.72 19.43 19.29 19.29 19.64 19.96 19.79 19.52 19.28 19.47 19.84 20.16 20.46 24.34
33.71 33.67 33.78 33.73 33.85 34.01 34.26 34.47 34.16 33.98 33.92 33.89 33.99 34.03 34.08 34.26 34.81 35.32 35.38 34.96 34.61 34.27 33.89 33.62 33.36 32.82 32.27 31.68 31.92 32.00 31.91 31.58 31.66 31.81 31.79 31.58 32.10 33.17 33.29 30.82 29.79 28.79 28.82 31.06 32.69 33.04 32.81 32.70 32.32 31.96 30.12 25.24 21.24 19.84 19.72 19.67 19.29 18.97 18.85 19.11 19.11 19.02 18.93 18.84 19.03 19.30 19.76 20.20 20.27
MSLP
1023.54 1023.70 1023.82 1023.94 1024.02 1024.14 1024.30 1024.42 1024.50 1024.58 1024.70 1024.86 1025.02 1025.14 1025.26 1025.42 1025.66 1025.82 1025.98 1026.14 1026.38 1026.54 1026.70 1026.82 1026.94 1027.06 1027.10 1027.18 1027.26 1027.34 1027.46 1027.58 1027.70 1027.78 1027.82 1027.90 1027.94 1027.98 1028.02 1028.10 1028.14 1028.26 1028.30 1028.38 1028.42 1028.46 1028.50 1028.50 1028.54 1028.58 1028.62 1028.66 1028.70 1028.78 1028.78 1028.78 1028.82 1028.86 1028.86 1028.90 1028.90 1028.86 1028.86 1028.86 1028.86 1028.86 1028.82 1028.82 1028.82
1023.62 1023.82 1023.94 1024.02 1024.10 1024.26 1024.38 1024.50 1024.62 1024.70 1024.78 1024.90 1025.02 1025.18 1025.30 1025.46 1025.70 1025.86 1025.98 1026.18 1026.34 1026.54 1026.66 1026.82 1026.94 1027.06 1027.10 1027.18 1027.22 1027.34 1027.46 1027.62 1027.70 1027.78 1027.86 1027.94 1027.98 1027.98 1028.02 1028.10 1028.18 1028.26 1028.34 1028.38 1028.46 1028.54 1028.54 1028.58 1028.66 1028.70 1028.70 1028.74 1028.78 1028.82 1028.86 1028.82 1028.86 1028.94 1028.98 1029.02 1028.98 1028.94 1028.90 1028.94 1028.90 1028.86 1028.82 1028.82 1028.82
1023.66 1023.82 1023.98 1024.10 1024.22 1024.34 1024.46 1024.62 1024.74 1024.82 1024.94 1025.02 1025.10 1025.22 1025.38 1025.54 1025.70 1025.90 1026.06 1026.22 1026.34 1026.50 1026.70 1026.82 1026.98 1027.06 1027.10 1027.22 1027.26 1027.34 1027.42 1027.58 1027.70 1027.82 1027.90 1027.98 1027.98 1027.98 1028.02 1028.10 1028.18 1028.26 1028.34 1028.38 1028.46 1028.54 1028.58 1028.66 1028.70 1028.74 1028.78 1028.82 1028.86 1028.98 1028.98 1028.98 1028.98 1028.98 1029.06 1029.10 1029.02 1028.98 1028.98 1028.94 1028.90 1028.86 1028.82 1028.82 1028.82
1023.66 1023.82 1024.02 1024.18 1024.30 1024.42 1024.54 1024.70 1024.82 1024.94 1025.02 1025.10 1025.18 1025.26 1025.42 1025.62 1025.78 1025.94 1026.10 1026.26 1026.38 1026.54 1026.70 1026.82 1026.94 1026.98 1027.10 1027.18 1027.26 1027.34 1027.42 1027.54 1027.66 1027.78 1027.86 1027.94 1027.98 1027.98 1028.02 1028.10 1028.22 1028.26 1028.34 1028.38 1028.50 1028.54 1028.62 1028.70 1028.70 1028.74 1028.82 1028.90 1028.98 1029.06 1029.10 1029.06 1029.06 1029.06 1029.10 1029.10 1029.02 1029.02 1028.98 1028.98 1028.90 1028.82 1028.82 1028.82 1028.86
1023.70 1023.86 1024.06 1024.22 1024.34 1024.42 1024.54 1024.66 1024.78 1024.94 1024.98 1025.06 1025.22 1025.38 1025.54 1025.70 1025.86 1026.02 1026.14 1026.30 1026.42 1026.54 1026.66 1026.78 1026.90 1026.98 1027.10 1027.18 1027.26 1027.38 1027.46 1027.54 1027.66 1027.74 1027.82 1027.90 1027.94 1027.98 1027.98 1028.10 1028.22 1028.30 1028.38 1028.42 1028.50 1028.54 1028.66 1028.70 1028.74 1028.78 1028.86 1028.94 1028.98 1029.06 1029.10 1029.10 1029.10 1029.10 1029.10 1029.06 1029.02 1028.98 1028.98 1028.98 1028.90 1028.86 1028.82 1028.86 1028.90
1023.70 1023.86 1024.02 1024.18 1024.30 1024.38 1024.54 1024.66 1024.78 1024.86 1024.98 1025.06 1025.26 1025.50 1025.66 1025.78 1025.94 1026.10 1026.26 1026.38 1026.46 1026.54 1026.62 1026.70 1026.82 1026.98 1027.10 1027.18 1027.30 1027.38 1027.46 1027.54 1027.62 1027.70 1027.82 1027.86 1027.90 1027.94 1027.98 1028.10 1028.18 1028.26 1028.38 1028.42 1028.50 1028.54 1028.66 1028.74 1028.78 1028.82 1028.90 1028.94 1028.98 1029.06 1029.10 1029.10 1029.14 1029.22 1029.22 1029.14 1029.06 1028.98 1028.98 1028.98 1028.90 1028.90 1028.90 1028.94 1028.98
1023.66 1023.82 1023.98 1024.14 1024.26 1024.38 1024.54 1024.62 1024.74 1024.82 1024.94 1025.06 1025.26 1025.54 1025.70 1025.82 1025.98 1026.18 1026.30 1026.38 1026.46 1026.54 1026.58 1026.70 1026.82 1026.98 1027.10 1027.22 1027.30 1027.42 1027.50 1027.54 1027.62 1027.70 1027.70 1027.82 1027.86 1027.94 1028.02 1028.10 1028.18 1028.26 1028.38 1028.42 1028.50 1028.58 1028.70 1028.74 1028.78 1028.82 1028.90 1028.98 1028.98 1029.06 1029.10 1029.18 1029.22 1029.26 1029.26 1029.26 1029.10 1028.98 1028.98 1028.98 1028.94 1028.90 1028.94 1028.98 1029.02
1023.54 1023.70 1023.90 1024.06 1024.14 1024.30 1024.46 1024.62 1024.74 1024.82 1024.98 1025.10 1025.26 1025.46 1025.66 1025.82 1025.98 1026.14 1026.26 1026.38 1026.46 1026.54 1026.54 1026.66 1026.74 1026.90 1027.02 1027.18 1027.26 1027.34 1027.42 1027.50 1027.58 1027.66 1027.70 1027.74 1027.82 1027.90 1027.98 1028.06 1028.18 1028.26 1028.30 1028.38 1028.46 1028.58 1028.70 1028.74 1028.82 1028.90 1028.98 1029.02 1029.06 1029.10 1029.18 1029.22 1029.26 1029.30 1029.30 1029.26 1029.10 1028.98 1028.94 1028.94 1028.90 1028.90 1028.94 1028.98 1029.02
1023.54 1023.70 1023.82 1023.98 1024.10 1024.22 1024.38 1024.54 1024.70 1024.82 1024.98 1025.10 1025.22 1025.38 1025.54 1025.70 1025.90 1026.06 1026.22 1026.34 1026.38 1026.42 1026.50 1026.58 1026.70 1026.82 1026.94 1027.02 1027.14 1027.26 1027.30 1027.38 1027.46 1027.58 1027.66 1027.70 1027.78 1027.86 1027.94 1028.02 1028.10 1028.26 1028.30 1028.34 1028.42 1028.54 1028.66 1028.74 1028.82 1028.90 1028.98 1029.02 1029.10 1029.18 1029.22 1029.26 1029.26 1029.30 1029.26 1029.22 1029.10 1028.98 1028.94 1028.90 1028.90 1028.90 1028.90 1028.98 1028.98
1023.54 1023.70 1023.82 1023.98 1024.10 1024.22 1024.30 1024.50 1024.66 1024.82 1024.98 1025.10 1025.22 1025.30 1025.46 1025.66 1025.82 1025.94 1026.06 1026.18 1026.26 1026.38 1026.42 1026.50 1026.54 1026.70 1026.82 1026.94 1027.02 1027.10 1027.22 1027.26 1027.38 1027.46 1027.54 1027.62 1027.70 1027.78 1027.86 1027.98 1028.06 1028.18 1028.26 1028.34 1028.42 1028.54 1028.62 1028.74 1028.82 1028.94 1028.98 1029.06 1029.10 1029.18 1029.22 1029.26 1029.26 1029.30 1029.26 1029.14 1029.10 1029.02 1028.98 1028.90 1028.86 1028.86 1028.90 1028.94 1028.98
1023.50 1023.66 1023.82 1023.98 1024.10 1024.22 1024.34 1024.54 1024.70 1024.82 1024.94 1025.10 1025.18 1025.26 1025.42 1025.58 1025.70 1025.82 1025.94 1026.02 1026.18 1026.30 1026.34 1026.38 1026.42 1026.54 1026.70 1026.82 1026.90 1026.98 1027.06 1027.14 1027.26 1027.30 1027.42 1027.54 1027.62 1027.70 1027.78 1027.86 1027.98 1028.10 1028.18 1028.26 1028.34 1028.46 1028.58 1028.70 1028.86 1028.98 1028.98 1029.02 1029.10 1029.18 1029.26 1029.26 1029.30 1029.30 1029.26 1029.14 1029.10 1029.06 1028.98 1028.94 1028.86 1028.86 1028.90 1028.94 1028.94
1023.42 1023.54 1023.70 1023.86 1024.02 1024.14 1024.34 1024.50 1024.70 1024.82 1024.90 1024.98 1025.10 1025.26 1025.38 1025.50 1025.58 1025.70 1025.82 1025.98 1026.14 1026.26 1026.26 1026.26 1026.30 1026.38 1026.54 1026.70 1026.78 1026.86 1026.94 1026.98 1027.10 1027.22 1027.30 1027.42 1027.54 1027.58 1027.66 1027.78 1027.86 1027.98 1028.10 1028.18 1028.26 1028.38 1028.54 1028.70 1028.82 1028.94 1029.02 1029.06 1029.10 1029.14 1029.22 1029.26 1029.30 1029.26 1029.22 1029.14 1029.10 1029.02 1028.98 1028.98 1028.90 1028.86 1028.86 1028.90 1028.90
1023.30 1023.50 1023.70 1023.82 1023.98 1024.10 1024.26 1024.42 1024.62 1024.74 1024.82 1024.94 1025.02 1025.10 1025.26 1025.30 1025.42 1025.54 1025.74 1025.94 1026.10 1026.18 1026.22 1026.22 1026.22 1026.26 1026.38 1026.54 1026.62 1026.70 1026.82 1026.90 1027.02 1027.14 1027.26 1027.34 1027.42 1027.50 1027.58 1027.66 1027.78 1027.86 1027.98 1028.10 1028.18 1028.30 1028.50 1028.62 1028.74 1028.86 1028.98 1029.06 1029.10 1029.14 1029.18 1029.22 1029.26 1029.26 1029.22 1029.18 1029.10 1029.10 1029.02 1028.98 1028.90 1028.86 1028.86 1028.86 1028.86
1023.26 1023.42 1023.58 1023.74 1023.90 1024.10 1024.26 1024.42 1024.54 1024.66 1024.78 1024.86 1024.90 1024.98 1025.10 1025.18 1025.26 1025.42 1025.62 1025.82 1025.98 1026.06 1026.10 1026.14 1026.14 1026.14 1026.22 1026.34 1026.46 1026.58 1026.70 1026.82 1026.94 1027.02 1027.14 1027.26 1027.34 1027.42 1027.50 1027.58 1027.70 1027.78 1027.90 1027.98 1028.10 1028.22 1028.38 1028.54 1028.66 1028.78 1028.90 1028.98 1029.10 1029.10 1029.10 1029.14 1029.18 1029.18 1029.18 1029.14 1029.10 1029.10 1029.02 1028.98 1028.90 1028.86 1028.82 1028.86 1028.86
1023.26 1023.38 1023.54 1023.70 1023.86 1024.02 1024.22 1024.38 1024.46 1024.54 1024.66 1024.70 1024.78 1024.82 1024.94 1025.06 1025.18 1025.30 1025.46 1025.70 1025.82 1025.86 1025.98 1026.02 1026.10 1026.10 1026.10 1026.14 1026.26 1026.38 1026.54 1026.70 1026.82 1026.94 1027.06 1027.18 1027.26 1027.30 1027.42 1027.50 1027.58 1027.70 1027.78 1027.90 1028.02 1028.10 1028.26 1028.38 1028.54 1028.66 1028.78 1028.94 1029.02 1029.06 1029.10 1029.10 1029.10 1029.10 1029.10 1029.10 1029.06 1028.98 1028.98 1028.90 1028.86 1028.82 1028.82 1028.82 1028.82
1023.18 1023.34 1023.50 1023.66 1023.82 1023.98 1024.14 1024.30 1024.38 1024.42 1024.54 1024.58 1024.66 1024.70 1024.82 1024.94 1025.06 1025.18 1025.34 1025.46 1025.58 1025.70 1025.82 1025.94 1025.98 1026.06 1026.10 1026.10 1026.14 1026.26 1026.42 1026.54 1026.70 1026.82 1026.98 1027.10 1027.18 1027.26 1027.30 1027.42 1027.50 1027.62 1027.70 1027.82 1027.98 1028.06 1028.14 1028.26 1028.38 1028.50 1028.66 1028.82 1028.94 1028.98 1029.02 1029.02 1029.02 1028.98 1028.98 1028.98 1028.94 1028.90 1028.86 1028.82 1028.82 1028.78 1028.78 1028.78 1028.82
1023.10 1023.30 1023.42 1023.58 1023.74 1023.90 1024.06 1024.18 1024.26 1024.30 1024.38 1024.46 1024.54 1024.58 1024.70 1024.82 1024.94 1025.06 1025.18 1025.26 1025.42 1025.58 1025.70 1025.82 1025.86 1025.98 1026.02 1026.10 1026.14 1026.22 1026.30 1026.42 1026.54 1026.70 1026.82 1026.98 1027.10 1027.18 1027.22 1027.26 1027.38 1027.46 1027.58 1027.70 1027.86 1027.98 1028.10 1028.18 1028.26 1028.34 1028.50 1028.66 1028.78 1028.86 1028.90 1028.90 1028.90 1028.90 1028.86 1028.86 1028.82 1028.82 1028.78 1028.74 1028.74 1028.74 1028.70 1028.70 1028.74
1023.06 1023.22 1023.38 1023.54 1023.70 1023.82 1023.94 1024.06 1024.14 1024.22 1024.26 1024.34 1024.38 1024.46 1024.54 1024.62 1024.78 1024.90 1024.98 1025.06 1025.22 1025.42 1025.58 1025.70 1025.78 1025.82 1025.94 1026.02 1026.14 1026.22 1026.26 1026.34 1026.50 1026.62 1026.70 1026.82 1026.94 1027.02 1027.10 1027.18 1027.26 1027.30 1027.42 1027.58 1027.74 1027.86 1027.98 1028.10 1028.14 1028.26 1028.38 1028.54 1028.66 1028.74 1028.78 1028.78 1028.78 1028.78 1028.82 1028.82 1028.78 1028.74 1028.70 1028.70 1028.70 1028.70 1028.70 1028.66 1028.66
1022.98 1023.10 1023.26 1023.42 1023.54 1023.70 1023.78 1023.90 1023.98 1024.10 1024.14 1024.22 1024.26 1024.34 1024.38 1024.50 1024.62 1024.74 1024.86 1024.98 1025.06 1025.18 1025.38 1025.54 1025.66 1025.70 1025.78 1025.86 1026.02 1026.10 1026.14 1026.26 1026.34 1026.46 1026.54 1026.62 1026.70 1026.82 1026.94 1027.02 1027.10 1027.18 1027.30 1027.46 1027.58 1027.70 1027.82 1027.94 1028.06 1028.18 1028.30 1028.42 1028.54 1028.62 1028.66 1028.66 1028.70 1028.70 1028.74 1028.74 1028.70 1028.70 1028.66 1028.66 1028.62 1028.62 1028.58 1028.54 1028.54
1022.86 1023.06 1023.18 1023.26 1023.42 1023.50 1023.62 1023.70 1023.78 1023.86 1023.98 1024.02 1024.10 1024.22 1024.30 1024.42 1024.50 1024.62 1024.74 1024.86 1024.94 1024.98 1025.14 1025.34 1025.54 1025.62 1025.70 1025.74 1025.86 1025.98 1026.02 1026.10 1026.18 1026.26 1026.38 1026.46 1026.54 1026.62 1026.70 1026.82 1026.98 1027.06 1027.18 1027.30 1027.42 1027.54 1027.70 1027.82 1027.94 1028.06 1028.22 1028.38 1028.50 1028.54 1028.58 1028.58 1028.62 1028.66 1028.70 1028.70 1028.66 1028.62 1028.58 1028.54 1028.54 1028.54 1028.50 1028.42 1028.38
1022.78 1022.90 1023.02 1023.10 1023.22 1023.34 1023.42 1023.50 1023.58 1023.70 1023.82 1023.90 1024.02 1024.10 1024.22 1024.34 1024.38 1024.50 1024.62 1024.70 1024.78 1024.90 1025.02 1025.18 1025.34 1025.42 1025.54 1025.62 1025.70 1025.82 1025.86 1025.94 1026.02 1026.10 1026.22 1026.26 1026.38 1026.46 1026.54 1026.62 1026.74 1026.90 1027.06 1027.22 1027.30 1027.42 1027.58 1027.70 1027.82 1027.98 1028.10 1028.26 1028.38 1028.42 1028.50 1028.54 1028.54 1028.58 1028.62 1028.58 1028.58 1028.54 1028.54 1028.50 1028.46 1028.38 1028.38 1028.30 1028.26
1022.66 1022.74 1022.86 1022.98 1023.10 1023.18 1023.26 1023.38 1023.50 1023.58 1023.70 1023.82 1023.98 1024.06 1024.14 1024.26 1024.30 1024.38 1024.42 1024.54 1024.66 1024.82 1024.94 1025.06 1025.14 1025.26 1025.38 1025.46 1025.54 1025.62 1025.70 1025.82 1025.86 1025.94 1026.02 1026.10 1026.18 1026.26 1026.30 1026.38 1026.54 1026.74 1026.94 1027.10 1027.22 1027.34 1027.50 1027.66 1027.78 1027.86 1028.02 1028.18 1028.26 1028.34 1028.38 1028.38 1028.46 1028.54 1028.54 1028.54 1028.54 1028.54 1028.46 1028.46 1028.38 1028.34 1028.26 1028.18 1028.10
1022.54 1022.66 1022.78 1022.86 1022.98 1023.10 1023.18 1023.26 1023.42 1023.54 1023.66 1023.82 1023.90 1023.98 1024.06 1024.14 1024.22 1024.26 1024.34 1024.46 1024.54 1024.70 1024.82 1024.94 1024.98 1025.06 1025.10 1025.22 1025.30 1025.42 1025.54 1025.70 1025.78 1025.82 1025.82 1025.90 1026.02 1026.10 1026.18 1026.26 1026.38 1026.58 1026.78 1026.98 1027.10 1027.26 1027.46 1027.62 1027.70 1027.82 1027.98 1028.10 1028.22 1028.26 1028.26 1028.26 1028.34 1028.42 1028.54 1028.54 1028.54 1028.50 1028.42 1028.38 1028.30 1028.26 1028.18 1028.10 1027.98
1022.50 1022.58 1022.70 1022.74 1022.86 1022.98 1023.10 1023.26 1023.38 1023.54 1023.66 1023.78 1023.86 1023.94 1024.02 1024.10 1024.10 1024.18 1024.26 1024.38 1024.50 1024.58 1024.70 1024.78 1024.82 1024.90 1024.94 1025.02 1025.10 1025.26 1025.42 1025.58 1025.70 1025.74 1025.74 1025.78 1025.90 1025.98 1026.02 1026.10 1026.26 1026.38 1026.58 1026.74 1026.90 1027.10 1027.30 1027.46 1027.62 1027.78 1027.90 1028.02 1028.10 1028.14 1028.14 1028.14 1028.26 1028.34 1028.42 1028.46 1028.50 1028.46 1028.38 1028.34 1028.26 1028.18 1028.10 1027.98 1027.94
1022.38 1022.50 1022.58 1022.70 1022.82 1022.94 1023.10 1023.26 1023.38 1023.54 1023.66 1023.74 1023.82 1023.90 1023.98 1023.98 1024.06 1024.10 1024.22 1024.34 1024.42 1024.50 1024.54 1024.66 1024.70 1024.74 1024.82 1024.90 1024.98 1025.10 1025.26 1025.42 1025.54 1025.66 1025.70 1025.74 1025.82 1025.86 1025.94 1026.02 1026.14 1026.26 1026.42 1026.58 1026.70 1026.82 1027.02 1027.22 1027.42 1027.58 1027.78 1027.90 1027.98 1027.98 1028.06 1028.10 1028.14 1028.22 1028.26 1028.38 1028.38 1028.38 1028.38 1028.34 1028.22 1028.10 1027.98 1027.94 1027.86
1022.30 1022.42 1022.54 1022.70 1022.82 1022.94 1023.10 1023.26 1023.38 1023.50 1023.62 1023.70 1023.82 1023.86 1023.90 1023.94 1023.98 1024.02 1024.14 1024.26 1024.34 1024.38 1024.46 1024.50 1024.58 1024.66 1024.70 1024.82 1024.94 1025.02 1025.10 1025.26 1025.34 1025.46 1025.58 1025.66 1025.70 1025.78 1025.82 1025.90 1026.02 1026.18 1026.30 1026.42 1026.54 1026.70 1026.82 1027.02 1027.18 1027.38 1027.54 1027.70 1027.82 1027.90 1027.98 1028.06 1028.06 1028.10 1028.14 1028.22 1028.26 1028.30 1028.30 1028.30 1028.22 1028.10 1027.98 1027.86 1027.82
1022.22 1022.38 1022.54 1022.66 1022.78 1022.94 1023.10 1023.26 1023.38 1023.50 1023.62 1023.70 1023.82 1023.90 1023.94 1023.94 1023.98 1024.02 1024.10 1024.18 1024.26 1024.30 1024.38 1024.42 1024.50 1024.54 1024.62 1024.70 1024.82 1024.98 1025.06 1025.06 1025.14 1025.26 1025.34 1025.42 1025.54 1025.62 1025.70 1025.74 1025.82 1025.98 1026.18 1026.26 1026.38 1026.54 1026.70 1026.82 1027.02 1027.18 1027.34 1027.50 1027.66 1027.78 1027.90 1027.98 1027.98 1027.98 1028.06 1028.10 1028.14 1028.18 1028.26 1028.26 1028.18 1028.10 1027.98 1027.82 1027.70
1022.18 1022.34 1022.46 1022.62 1022.78 1022.94 1023.10 1023.22 1023.34 1023.50 1023.62 1023.70 1023.78 1023.82 1023.86 1023.94 1023.98 1024.06 1024.10 1024.10 1024.18 1024.26 1024.38 1024.38 1024.42 1024.46 1024.54 1024.62 1024.74 1024.82 1024.82 1024.86 1024.94 1024.98 1025.02 1025.10 1025.26 1025.38 1025.46 1025.58 1025.70 1025.86 1026.02 1026.14 1026.26 1026.42 1026.58 1026.70 1026.82 1027.02 1027.18 1027.30 1027.46 1027.58 1027.70 1027.82 1027.90 1027.98 1027.98 1028.06 1028.06 1028.06 1028.06 1028.10 1028.02 1027.98 1027.90 1027.82 1027.70
1022.10 1022.26 1022.42 1022.58 1022.78 1022.90 1023.02 1023.18 1023.30 1023.42 1023.54 1023.58 1023.66 1023.74 1023.82 1023.94 1023.98 1024.02 1024.06 1024.10 1024.14 1024.22 1024.26 1024.34 1024.38 1024.38 1024.50 1024.62 1024.62 1024.62 1024.66 1024.70 1024.74 1024.82 1024.90 1025.02 1025.10 1025.22 1025.30 1025.42 1025.54 1025.70 1025.90 1026.06 1026.26 1026.38 1026.54 1026.70 1026.82 1026.90 1027.02 1027.18 1027.34 1027.50 1027.58 1027.70 1027.82 1027.90 1027.94 1027.94 1027.94 1027.94 1027.94 1027.90 1027.86 1027.82 1027.82 1027.78 1027.70
1021.98 1022.18 1022.38 1022.54 1022.70 1022.86 1022.98 1023.10 1023.22 1023.26 1023.34 1023.42 1023.54 1023.62 1023.74 1023.90 1023.98 1024.02 1024.06 1024.10 1024.10 1024.10 1024.14 1024.18 1024.26 1024.34 1024.42 1024.50 1024.50 1024.54 1024.54 1024.58 1024.58 1024.70 1024.82 1024.94 1025.06 1025.10 1025.22 1025.30 1025.42 1025.70 1025.94 1026.10 1026.26 1026.38 1026.50 1026.62 1026.74 1026.82 1026.94 1027.06 1027.22 1027.34 1027.46 1027.58 1027.70 1027.82 1027.82 1027.82 1027.78 1027.78 1027.74 1027.74 1027.74 1027.70 1027.70 1027.70 1027.66
1021.98 1022.10 1022.30 1022.54 1022.66 1022.82 1022.90 1022.98 1023.10 1023.18 1023.26 1023.34 1023.42 1023.54 1023.70 1023.82 1023.94 1023.98 1023.98 1023.98 1023.98 1023.98 1023.98 1024.06 1024.14 1024.26 1024.30 1024.34 1024.38 1024.42 1024.46 1024.46 1024.46 1024.54 1024.66 1024.74 1024.86 1024.98 1025.10 1025.22 1025.38 1025.70 1025.98 1026.10 1026.22 1026.34 1026.42 1026.54 1026.58 1026.70 1026.82 1026.94 1027.10 1027.26 1027.38 1027.50 1027.62 1027.70 1027.70 1027.66 1027.62 1027.58 1027.58 1027.54 1027.58 1027.58 1027.58 1027.62 1027.54
1021.94 1022.10 1022.30 1022.46 1022.58 1022.70 1022.82 1022.90 1022.98 1023.10 1023.18 1023.26 1023.38 1023.50 1023.62 1023.70 1023.82 1023.82 1023.82 1023.82 1023.82 1023.82 1023.90 1023.98 1024.02 1024.10 1024.14 1024.18 1024.26 1024.26 1024.26 1024.26 1024.30 1024.34 1024.42 1024.54 1024.70 1024.90 1024.98 1025.10 1025.38 1025.66 1025.86 1025.98 1026.10 1026.22 1026.26 1026.38 1026.46 1026.58 1026.70 1026.82 1026.98 1027.10 1027.26 1027.42 1027.50 1027.54 1027.54 1027.50 1027.46 1027.42 1027.42 1027.42 1027.42 1027.42 1027.42 1027.42 1027.34
1021.90 1022.10 1022.26 1022.42 1022.54 1022.66 1022.74 1022.82 1022.94 1023.02 1023.10 1023.22 1023.30 1023.42 1023.54 1023.58 1023.66 1023.70 1023.70 1023.66 1023.70 1023.74 1023.82 1023.82 1023.86 1023.94 1023.98 1024.02 1024.02 1024.06 1024.06 1024.02 1024.06 1024.10 1024.22 1024.34 1024.54 1024.70 1024.86 1025.06 1025.34 1025.58 1025.78 1025.86 1025.98 1026.06 1026.14 1026.26 1026.38 1026.46 1026.54 1026.70 1026.86 1027.06 1027.22 1027.30 1027.42 1027.42 1027.42 1027.38 1027.30 1027.26 1027.26 1027.26 1027.30 1027.30 1027.26 1027.18 1027.10
1021.94 1022.10 1022.30 1022.42 1022.54 1022.66 1022.70 1022.78 1022.82 1022.94 1023.06 1023.18 1023.26 1023.34 1023.42 1023.46 1023.54 1023.58 1023.54 1023.54 1023.54 1023.54 1023.58 1023.62 1023.62 1023.62 1023.66 1023.70 1023.74 1023.78 1023.78 1023.74 1023.82 1023.90 1024.02 1024.14 1024.30 1024.54 1024.74 1024.98 1025.26 1025.46 1025.58 1025.70 1025.82 1025.94 1026.02 1026.10 1026.26 1026.34 1026.42 1026.54 1026.78 1026.98 1027.10 1027.26 1027.34 1027.38 1027.34 1027.26 1027.18 1027.10 1027.10 1027.10 1027.10 1027.10 1027.02 1026.98 1026.98
1021.98 1022.14 1022.34 1022.46 1022.58 1022.70 1022.70 1022.74 1022.82 1022.90 1023.02 1023.14 1023.22 1023.26 1023.34 1023.42 1023.50 1023.50 1023.50 1023.46 1023.46 1023.46 1023.46 1023.42 1023.42 1023.42 1023.42 1023.42 1023.42 1023.50 1023.54 1023.54 1023.62 1023.70 1023.82 1023.98 1024.18 1024.38 1024.66 1024.86 1025.10 1025.26 1025.34 1025.50 1025.66 1025.78 1025.90 1025.98 1026.10 1026.22 1026.34 1026.50 1026.70 1026.86 1027.02 1027.18 1027.26 1027.26 1027.22 1027.14 1027.10 1027.02 1026.98 1026.98 1026.90 1026.86 1026.82 1026.82 1026.82
1021.98 1022.14 1022.38 1022.54 1022.62 1022.66 1022.70 1022.74 1022.78 1022.86 1022.98 1023.10 1023.22 1023.26 1023.34 1023.42 1023.42 1023.42 1023.38 1023.38 1023.42 1023.42 1023.42 1023.34 1023.30 1023.34 1023.34 1023.30 1023.26 1023.26 1023.26 1023.34 1023.42 1023.54 1023.66 1023.82 1024.10 1024.34 1024.54 1024.78 1024.98 1025.10 1025.18 1025.30 1025.50 1025.62 1025.70 1025.82 1025.98 1026.10 1026.22 1026.38 1026.62 1026.82 1026.98 1027.10 1027.18 1027.14 1027.10 1027.06 1026.98 1026.94 1026.86 1026.82 1026.82 1026.78 1026.74 1026.70 1026.74
1021.98 1022.14 1022.38 1022.54 1022.66 1022.66 1022.70 1022.70 1022.74 1022.82 1022.98 1023.10 1023.14 1023.26 1023.30 1023.34 1023.34 1023.26 1023.26 1023.26 1023.30 1023.34 1023.30 1023.26 1023.26 1023.26 1023.26 1023.18 1023.14 1023.10 1023.06 1023.10 1023.18 1023.34 1023.50 1023.70 1023.94 1024.22 1024.46 1024.70 1024.82 1024.98 1025.10 1025.14 1025.26 1025.42 1025.54 1025.70 1025.82 1025.94 1026.10 1026.30 1026.54 1026.74 1026.90 1027.02 1027.06 1026.98 1026.94 1026.94 1026.90 1026.82 1026.78 1026.74 1026.70 1026.70 1026.66 1026.66 1026.66
1021.98 1022.18 1022.38 1022.54 1022.62 1022.66 1022.66 1022.70 1022.78 1022.86 1022.98 1023.02 1023.10 1023.14 1023.18 1023.22 1023.26 1023.22 1023.14 1023.10 1023.18 1023.26 1023.26 1023.18 1023.18 1023.14 1023.10 1023.02 1023.02 1022.98 1022.94 1022.98 1023.02 1023.18 1023.42 1023.58 1023.74 1023.98 1024.26 1024.50 1024.66 1024.82 1024.94 1024.98 1025.10 1025.26 1025.38 1025.50 1025.62 1025.74 1025.90 1026.18 1026.46 1026.66 1026.82 1026.90 1026.90 1026.86 1026.82 1026.82 1026.82 1026.78 1026.70 1026.70 1026.70 1026.66 1026.62 1026.58 1026.50
1022.02 1022.26 1022.38 1022.50 1022.54 1022.62 1022.66 1022.70 1022.78 1022.82 1022.90 1022.98 1022.98 1023.02 1023.06 1023.10 1023.10 1023.10 1023.02 1022.98 1023.02 1023.06 1023.10 1023.10 1023.06 1022.98 1022.94 1022.94 1022.94 1022.98 1022.98 1022.94 1022.90 1023.06 1023.26 1023.46 1023.54 1023.70 1023.94 1024.22 1024.42 1024.58 1024.70 1024.82 1024.94 1025.06 1025.18 1025.26 1025.42 1025.54 1025.78 1026.02 1026.26 1026.50 1026.66 1026.70 1026.70 1026.70 1026.74 1026.78 1026.82 1026.78 1026.74 1026.70 1026.66 1026.58 1026.54 1026.50 1026.34
1022.18 1022.34 1022.38 1022.42 1022.46 1022.54 1022.58 1022.66 1022.70 1022.74 1022.82 1022.82 1022.86 1022.90 1022.94 1022.94 1022.90 1022.86 1022.82 1022.82 1022.82 1022.86 1022.86 1022.90 1022.82 1022.82 1022.82 1022.82 1022.82 1022.90 1022.94 1022.98 1022.94 1022.98 1023.10 1023.26 1023.38 1023.46 1023.62 1023.94 1024.14 1024.38 1024.50 1024.62 1024.78 1024.90 1024.98 1025.10 1025.22 1025.38 1025.62 1025.98 1026.14 1026.34 1026.42 1026.46 1026.54 1026.62 1026.70 1026.74 1026.78 1026.78 1026.74 1026.70 1026.62 1026.58 1026.54 1026.46 1026.38
1022.34 1022.38 1022.34 1022.38 1022.38 1022.46 1022.54 1022.62 1022.66 1022.66 1022.70 1022.70 1022.78 1022.78 1022.74 1022.70 1022.74 1022.70 1022.70 1022.70 1022.70 1022.70 1022.70 1022.70 1022.70 1022.70 1022.70 1022.74 1022.74 1022.78 1022.90 1022.98 1022.98 1022.98 1022.98 1023.10 1023.26 1023.34 1023.46 1023.70 1023.98 1024.18 1024.34 1024.42 1024.58 1024.70 1024.82 1024.94 1025.06 1025.18 1025.42 1025.82 1026.02 1026.14 1026.22 1026.26 1026.38 1026.54 1026.66 1026.70 1026.70 1026.78 1026.78 1026.70 1026.62 1026.54 1026.54 1026.46 1026.42
Wind_Speed
6 5 4 4 4 4 4 3 4 4 4 5 5 4 4 5 5 4 4 4 4 4 4 4 3 3 3 4 6 6 5 4 4 4 4 5 4 4 4 3 4 4 4 4 4 4 4 3 3 3 2 2 3 3 4 4 4 5 5 4 4 3 4 4 4 4 4 4 3
6 5 4 4 4 4 4 4 4 4 4 4 4 4 5 5 5 5 4 5 4 4 4 3 3 3 4 5 6 5 5 4 4 4 4 4 4 4 4 3 4 4 4 4 4 3 3 3 3 3 2 2 3 4 4 4 4 4 5 4 3 3 3 3 3 3 3 3 3
5 5 4 4 4 4 4 4 4 4 5 4 4 4 4 4 4 5 5 4 4 4 4 3 3 3 4 5 5 5 5 4 4 3 3 3 3 3 4 4 4 4 4 4 4 3 3 2 2 2 2 3 3 4 3 3 4 4 3 3 2 2 2 2 2 2 2 2 2
5 4 4 4 4 4 4 4 4 5 5 4 4 4 4 4 4 4 4 4 4 4 3 3 3 3 4 4 4 4 4 4 4 3 3 3 3 3 3 4 4 4 4 4 4 3 3 3 2 2 2 3 3 3 3 3 3 3 2 1 1 1 1 1 1 1 1 2 2
5 4 3 3 4 4 4 4 5 5 5 4 4 4 4 3 4 4 4 4 4 4 4 3 3 3 3 4 5 5 4 4 4 4 3 3 3 3 3 4 4 4 4 4 4 3 3 3 2 2 2 2 2 2 2 2 2 2 1 1 1 1 1 1 1 1 1 1 2
5 4 4 4 4 4 4 4 5 5 5 5 5 4 4 3 4 4 4 4 4 4 4 4 3 3 3 3 4 4 4 3 3 3 3 3 3 3 3 4 4 4 4 4 4 4 3 3 2 2 2 2 2 2 2 2 2 2 1 2 2 1 1 1 1 1 1 2 2
6 5 5 5 5 5 4 4 5 5 5 5 6 6 5 4 4 5 5 5 4 4 4 3 3 3 3 3 3 3 3 3 2 3 3 3 3 3 3 4 4 4 4 4 4 3 3 3 2 2 2 2 2 2 2 2 2 1 1 2 2 1 1 0 0 1 1 2 3
6 6 6 6 6 5 5 5 5 5 5 5 7 7 7 6 5 5 5 4 4 4 4 4 4 3 3 4 4 4 3 3 3 2 3 3 3 3 3 4 4 5 4 4 4 3 3 2 2 2 2 2 2 2 2 2 2 1 2 2 2 2 1 0 0 1 1 2 3
6 6 6 6 6 5 5 5 5 6 6 6 7 7 7 6 6 5 4 4 4 4 4 4 4 4 4 4 4 4 4 4 3 3 3 3 3 3 4 4 5 4 4 4 4 4 3 3 2 2 2 2 2 1 2 2 2 2 2 2 2 2 1 1 0 1 1 2 2
7 6 6 5 5 5 5 5 6 6 7 7 8 7 7 6 5 5 4 4 3 4 4 4 5 5 4 5 5 4 4 4 4 3 3 3 3 4 4 4 5 5 4 3 4 4 3 3 3 2 2 2 2 1 2 2 3 3 3 2 2 2 2 1 1 1 1 1 1
7 7 6 5 6 6 5 5 5 6 7 7 8 7 7 6 5 4 4 4 3 3 4 5 5 6 5 5 5 5 5 4 4 4 4 3 4 4 5 5 6 5 5 4 3 3 3 3 3 3 2 2 2 1 2 3 3 3 3 2 1 1 1 2 1 1 1 1 1
8 7 7 6 6 6 5 5 5 5 7 7 8 7 7 6 5 5 5 4 4 4 4 4 5 6 6 5 5 5 5 5 4 4 4 3 4 4 5 5 6 6 5 5 4 3 3 3 3 3 3 2 1 1 2 3 3 3 3 3 2 1 1 2 2 1 1 0 1
8 8 7 7 7 6 6 5 5 5 7 8 7 7 7 6 6 6 6 6 5 4 3 3 4 5 6 5 5 5 5 5 4 4 3 3 4 4 5 5 6 6 5 5 4 4 4 4 4 4 3 2 1 1 1 2 2 3 3 3 2 2 2 2 2 1 1 1 1
9 8 8 7 7 6 5 5 5 5 6 7 7 7 7 7 7 7 7 6 5 4 3 3 3 4 5 6 5 5 5 5 4 4 3 3 3 4 5 5 6 6 5 4 4 4 5 5 5 5 4 2 1 1 1 1 2 2 2 2 2 2 2 3 2 2 1 1 1
9 8 8 7 7 6 5 5 4 5 6 7 7 7 7 7 7 7 7 7 6 4 3 3 3 3 4 5 5 6 6 5 4 4 3 3 3 4 5 5 5 5 5 4 4 4 5 6 5 5 4 3 1 0 1 1 2 2 2 2 2 2 2 3 2 2 2 1 2
8 8 8 7 7 6 5 5 4 4 5 5 5 6 6 6 6 7 7 7 5 4 3 3 3 3 3 4 5 6 5 5 4 4 4 3 3 4 4 5 5 5 5 5 4 4 5 5 5 5 4 3 2 1 1 1 1 2 2 2 2 2 3 3 3 2 2 2 2
8 8 8 7 7 6 6 5 4 4 4 4 4 5 5 6 6 6 7 7 5 5 4 4 3 3 2 2 3 4 5 5 4 4 4 4 4 4 4 5 5 5 5 5 5 5 5 5 5 4 4 3 2 1 1 1 1 2 2 3 3 3 3 3 3 3 2 2 2
8 8 7 7 7 7 6 6 5 4 4 4 4 4 5 5 6 6 6 6 6 6 6 5 4 3 3 3 3 3 4 5 5 5 5 5 5 5 5 5 5 5 5 5 6 6 6 6 5 4 4 3 2 1 1 1 1 1 2 2 3 3 3 4 3 3 2 2 3
7 7 7 8 8 8 7 7 6 5 5 4 4 4 5 5 6 6 6 6 6 7 7 6 4 4 3 4 3 3 4 4 5 6 5 5 5 5 5 5 5 5 5 6 6 7 7 6 6 5 4 3 2 1 1 1 0 1 2 2 3 3 4 4 3 3 3 3 3
8 8 8 8 8 8 8 8 7 6 5 4 4 5 5 5 6 6 6 6 7 7 7 7 6 4 4 4 4 4 4 4 5 6 6 5 5 5 5 5 5 5 5 6 6 6 7 7 6 5 4 3 2 2 1 1 0 1 1 2 3 3 4 4 4 4 3 3 4
8 8 8 8 8 8 8 7 6 5 5 4 5 5 4 4 5 6 6 6 7 7 7 7 7 6 5 4 4 4 4 4 5 5 6 5 6 6 6 6 6 5 5 6 6 6 7 7 6 5 4 3 3 2 2 1 0 1 1 2 3 3 4 4 4 4 4 5 5
7 7 7 7 7 6 6 5 5 4 4 4 4 4 4 4 4 5 5 5 6 6 6 6 7 7 7 6 5 5 4 3 4 4 5 5 5 5 6 6 6 6 6 6 6 7 7 6 6 5 4 3 3 3 2 2 1 0 1 2 3 4 4 5 5 5 6 6 5
5 5 5 5 5 5 5 4 4 4 4 3 3 3 3 3 3 4 4 4 4 5 5 5 6 7 8 7 6 5 4 3 3 3 4 4 4 5 5 5 6 6 6 6 7 7 7 6 5 5 4 4 3 3 3 2 1 0 1 2 3 4 5 5 5 6 6 6 5
5 4 4 4 4 5 4 4 4 4 3 3 3 3 3 3 3 3 3 3 4 5 6 5 5 6 7 7 7 6 5 4 4 4 4 4 4 4 5 5 6 6 6 6 7 8 8 6 5 4 4 3 3 3 3 2 2 1 1 2 3 4 5 6 6 7 7 7 5
5 5 4 4 5 4 4 4 4 3 3 3 3 3 3 3 3 3 3 3 4 5 6 6 6 6 6 7 6 6 6 5 5 5 4 4 4 4 4 5 4 4 5 6 10 11 10 8 6 5 4 4 3 3 2 2 2 2 1 2 3 3 4 6 6 7 7 6 5
5 5 5 5 5 4 4 4 3 3 2 2 2 2 2 2 3 3 3 3 3 4 5 6 6 6 6 6 6 6 6 6 6 6 6 5 5 5 4 5 4 4 5 8 11 13 12 11 9 8 6 4 4 3 2 2 2 2 2 2 2 3 4 5 6 7 6 5 4
5 5 5 5 5 4 4 3 3 3 2 2 2 2 2 2 2 2 2 3 3 3 3 4 5 5 6 6 6 6 6 6 6 7 7 7 7 6 5 5 5 5 6 10 13 13 13 12 11 10 8 5 4 4 3 2 2 2 2 2 3 3 4 5 6 7 6 5 4
5 5 5 5 5 4 3 3 3 2 2 2 2 2 2 2 2 2 2 2 2 1 1 2 3 3 4 5 6 7 7 7 7 7 8 8 8 7 6 5 5 6 9 13 14 14 13 13 12 11 9 6 5 4 3 3 2 2 2 2 3 3 4 5 5 6 6 5 4
6 5 5 5 5 4 3 3 3 3 3 3 3 2 2 1 1 1 1 1 1 1 1 2 1 2 3 4 5 6 7 7 7 7 7 7 7 7 6 5 5 8 11 15 15 14 14 13 12 11 10 8 5 4 3 3 3 2 2 3 3 3 4 5 5 6 6 5 4
6 6 6 5 5 4 3 3 3 3 3 3 2 2 2 1 1 1 1 1 2 2 2 2 2 2 3 4 5 6 6 6 7 7 7 7 7 6 5 5 6 8 11 15 15 14 13 13 12 11 10 9 6 4 3 3 3 3 3 3 3 4 4 5 6 6 6 4 3
6 6 6 5 4 4 3 3 3 3 3 2 2 2 1 1 1 1 2 2 2 2 2 2 2 3 3 4 4 5 6 6 6 6 7 8 7 6 5 5 6 9 11 15 14 14 14 13 12 12 11 10 7 5 3 3 3 3 3 3 4 4 5 6 6 6 6 4 3
6 6 6 5 4 4 3 3 3 3 3 3 2 2 2 2 2 2 2 2 2 2 2 2 2 3 3 3 3 4 5 6 7 8 8 8 7 5 5 5 7 9 12 15 15 14 14 13 13 12 11 10 7 5 4 3 3 4 4 4 5 5 6 5 5 6 5 4 3
6 6 5 5 4 3 3 3 3 3 3 3 2 2 2 3 2 2 2 2 2 2 3 3 3 3 4 3 4 4 5 6 8 8 8 8 7 6 5 5 6 9 13 16 15 15 14 14 13 12 12 11 7 5 4 3 3 3 4 4 5 6 6 6 6 5 5 4 3
6 5 5 4 4 3 3 3 3 3 3 2 2 3 3 2 2 2 2 2 2 3 3 4 4 4 5 5 5 5 5 6 7 8 8 8 7 6 5 4 5 9 14 17 16 15 14 14 13 13 12 10 7 5 4 3 3 4 4 5 5 5 5 5 5 5 4 3 3
5 5 4 3 3 3 3 3 3 3 3 2 2 2 2 3 3 3 3 3 3 3 3 3 4 4 4 5 6 6 6 6 6 7 8 8 8 7 6 5 6 10 15 18 16 15 15 14 14 13 11 9 6 4 4 4 4 4 4 4 4 4 4 4 4 3 3 2 2
5 5 4 3 3 3 3 3 3 3 2 2 2 2 2 2 3 3 3 3 2 3 3 3 3 3 4 5 6 6 7 6 6 7 8 8 8 8 7 6 7 11 16 18 17 16 15 15 14 13 11 8 5 4 3 4 4 4 4 3 3 4 4 4 3 2 2 2 1
5 5 4 4 3 3 3 3 3 2 2 2 2 3 3 3 3 3 3 2 3 3 3 3 3 4 4 5 6 6 6 5 6 7 8 9 9 9 8 7 9 12 15 18 17 17 16 15 14 13 10 6 4 3 3 3 3 3 2 2 3 3 3 3 3 2 2 1 2
5 5 5 4 4 3 3 2 2 2 2 2 2 2 2 2 2 3 3 2 3 4 4 4 4 4 4 5 5 5 4 4 5 7 8 9 9 10 9 9 9 11 14 17 18 17 17 16 15 13 10 6 5 4 4 3 2 2 1 1 2 3 3 2 2 2 2 2 4
4 4 4 4 3 3 2 2 2 2 2 2 2 2 2 2 2 3 3 3 3 4 4 4 4 4 4 4 3 3 3 4 6 7 8 9 9 10 11 10 10 11 13 17 18 18 17 16 15 14 11 7 5 5 4 3 2 1 1 1 2 3 3 2 2 1 2 3 6
3 3 4 3 3 3 2 2 2 2 2 2 2 2 3 3 3 3 3 3 3 3 3 4 4 4 4 4 4 3 3 4 6 7 8 9 9 11 11 10 10 11 13 17 18 18 17 16 15 15 12 7 6 5 4 3 3 1 1 1 2 2 2 3 2 1 2 3 5
2 3 3 3 3 2 2 1 2 2 2 2 3 3 3 3 3 3 3 3 3 3 3 4 4 4 4 4 4 4 4 4 5 7 8 9 9 10 10 9 10 11 12 16 18 18 17 16 16 15 13 8 6 4 4 4 3 2 2 2 2 2 2 2 2 2 2 3 3
Wind_Direction
86 86 87 88 88 88 87 86 89 93 96 98 100 101 101 101 101 100 98 97 99 100 101 102 106 107 104 100 98 95 90 85 84 88 93 96 96 92 87 82 79 78 75 68 60 50 40 27 18 11 9 23 36 37 37 38 41 40 36 30 25 23 25 25 19 18 16 14 9
96 96 96 93 92 91 90 88 87 89 91 96 100 101 102 103 104 103 101 101 104 105 104 102 104 106 105 103 101 99 95 90 89 90 93 97 98 96 92 88 85 83 81 76 67 56 43 32 27 23 22 30 39 39 35 32 40 41 36 25 18 17 19 19 13 13 14 10 2
109 106 103 100 99 99 98 98 97 97 97 97 98 99 100 102 106 107 108 109 107 105 103 103 107 110 111 109 105 105 105 105 103 100 99 101 100 97 95 92 88 85 83 81 73 63 51 42 43 41 39 39 44 41 33 26 36 40 35 17 7 6 10 3 357 2 7 3 354
118 117 115 115 116 117 117 116 112 109 107 103 97 95 95 99 103 107 108 106 102 102 106 113 116 118 118 117 116 116 118 121 119 117 114 111 107 105 103 99 93 90 87 84 77 68 58 52 54 54 52 51 51 45 36 28 34 34 25 356 355 355 353 338 336 347 358 351 339
125 125 127 130 131 131 129 124 120 118 114 107 98 92 89 91 96 100 101 102 107 113 119 123 122 119 120 121 126 128 129 128 127 125 125 122 118 115 109 104 103 100 96 89 82 74 66 61 62 60 58 58 56 49 38 33 34 27 5 329 323 321 321 320 323 339 355 352 341
130 127 125 127 126 125 123 122 122 120 116 108 101 96 92 90 94 101 109 117 124 126 124 120 117 113 111 115 126 130 131 129 128 129 130 129 126 119 112 110 110 108 102 94 87 80 75 72 68 62 57 57 53 41 32 37 36 23 352 321 300 294 299 316 320 351 7 4 347
131 127 123 122 120 119 118 120 120 117 113 108 106 106 106 104 106 113 122 130 131 130 127 124 122 118 116 118 125 129 131 129 130 131 133 135 132 126 121 120 115 110 105 99 92 86 83 85 78 67 56 54 43 24 15 25 29 13 338 308 292 285 280 283 313 8 17 7 351
129 128 127 126 124 123 123 123 121 118 116 115 117 119 119 119 120 122 126 129 135 140 142 141 140 138 135 134 137 138 137 135 133 136 138 139 138 134 130 124 117 113 111 106 100 96 92 90 87 81 69 60 43 18 2 5 7 350 316 291 284 283 277 242 335 30 26 10 353
129 129 130 129 129 130 130 130 127 125 124 125 127 128 128 128 128 127 129 136 149 153 153 152 152 149 145 145 147 148 147 143 144 146 148 147 144 141 135 125 120 117 115 111 109 107 102 95 90 87 82 74 52 16 349 346 344 327 301 278 278 285 293 290 1 29 28 17 356
135 134 134 133 136 137 136 133 130 129 129 130 131 132 133 134 134 136 142 152 154 155 158 162 159 155 152 154 156 157 155 151 151 154 156 157 154 149 143 134 128 124 122 119 116 113 109 100 92 84 79 77 61 22 347 338 331 316 299 276 274 289 306 314 341 12 21 19 354
142 142 141 143 145 142 139 135 134 133 133 135 136 138 140 143 145 149 152 151 151 161 172 172 162 159 158 160 163 162 160 157 155 157 161 165 161 155 149 141 136 132 131 130 126 120 113 106 97 86 75 67 58 24 349 333 326 315 303 287 282 299 316 317 327 346 5 6 346
146 146 146 147 147 144 142 143 142 141 141 142 145 147 151 156 158 158 156 152 163 177 185 177 164 160 160 163 165 163 160 157 157 159 164 169 166 158 151 143 138 136 136 138 133 126 119 114 106 95 80 59 49 15 344 329 325 318 310 299 302 313 320 312 311 312 320 1 350
147 147 147 148 147 146 146 151 152 150 149 151 155 159 163 168 167 163 160 161 170 180 185 176 163 160 161 163 162 160 158 157 157 159 165 170 165 157 149 143 139 138 139 143 138 130 124 119 114 107 96 75 48 354 328 324 323 320 315 309 314 315 311 303 299 302 317 0 344
147 148 149 151 150 150 152 158 160 160 159 161 164 167 170 174 171 167 163 163 168 171 171 164 160 161 163 163 161 159 158 155 153 156 162 168 163 155 148 144 140 140 142 146 139 132 128 124 121 116 110 100 74 324 308 315 320 317 313 311 311 309 304 297 295 304 320 335 319
148 150 152 152 153 154 158 164 167 167 166 168 172 172 172 173 172 167 163 161 164 163 158 152 159 165 167 164 162 160 157 154 153 155 161 167 162 155 149 144 142 142 144 146 140 135 131 129 126 123 119 118 125 268 294 306 312 314 311 307 306 305 304 301 301 304 306 303 299
150 153 154 154 155 159 163 169 172 171 170 175 175 171 168 169 167 163 159 158 159 156 151 153 160 163 164 164 162 160 158 157 157 159 164 169 164 156 149 144 144 145 146 146 142 136 132 131 129 126 125 128 142 184 262 293 309 313 312 310 311 310 309 306 304 299 290 278 278
153 156 157 157 159 163 168 173 174 173 173 176 172 166 163 162 160 158 157 156 154 154 156 163 162 157 153 157 160 160 159 162 164 167 171 174 167 158 152 149 150 150 150 147 142 137 133 130 127 125 127 132 145 168 218 269 302 311 312 312 314 313 311 307 301 291 280 269 264
158 160 161 161 164 169 173 176 176 176 176 175 170 165 161 157 156 157 158 158 156 159 163 170 165 157 150 153 157 160 162 167 172 176 176 174 166 159 154 154 155 154 151 147 144 140 136 129 124 122 125 133 145 166 195 227 283 306 309 312 313 312 310 306 298 285 271 262 262
164 165 166 168 171 174 177 178 178 179 179 176 169 164 160 156 156 157 160 163 163 164 166 170 167 161 155 156 158 161 165 168 175 177 177 170 162 157 155 156 157 154 151 147 145 140 135 128 124 123 126 134 149 167 189 194 268 310 311 311 312 311 309 305 297 285 271 262 265
171 172 174 176 178 180 181 181 180 180 179 174 167 163 160 159 156 158 163 172 172 169 166 167 167 166 163 161 161 166 170 171 173 175 174 167 160 157 157 157 157 155 150 144 141 136 131 126 126 127 131 138 151 169 180 164 9 323 316 311 310 307 305 302 297 290 282 276 273
176 179 181 182 181 181 181 181 179 175 171 166 162 161 160 158 157 162 169 176 173 169 166 167 168 169 170 170 170 175 177 173 171 171 170 164 161 161 161 159 157 152 146 141 137 131 128 127 129 132 137 145 158 167 169 153 110 333 316 312 309 305 302 300 297 294 290 285 278
180 182 183 181 177 175 172 170 164 159 156 156 157 158 158 159 164 169 172 171 167 166 167 170 172 173 174 175 176 178 178 172 171 170 168 164 164 165 163 159 155 149 142 138 133 130 129 131 134 137 142 151 163 170 166 148 134 337 313 310 307 305 303 300 297 292 288 283 276
179 179 176 170 162 155 150 145 141 139 140 146 151 155 158 166 172 173 170 163 165 170 173 176 177 177 177 176 175 173 171 169 172 172 170 166 168 169 166 162 157 150 144 140 135 134 134 136 139 142 147 155 167 171 166 149 143 150 299 303 304 303 301 298 293 289 286 282 273
170 166 159 148 140 136 132 128 127 130 136 148 155 161 166 173 176 173 169 168 175 179 181 182 182 181 179 175 172 168 166 165 170 174 173 170 171 171 171 165 158 151 146 144 144 144 144 143 144 149 154 162 169 170 164 152 150 162 235 283 294 296 297 294 292 288 285 281 272
156 149 141 135 131 128 124 123 127 135 147 159 163 165 170 179 179 177 176 181 187 188 187 187 186 183 179 175 171 167 163 163 167 170 173 175 175 172 169 163 154 146 142 143 147 148 149 149 152 155 161 166 166 164 159 156 159 173 206 252 275 286 291 293 291 289 285 279 267
146 141 138 134 130 126 125 129 135 144 152 157 159 169 179 186 180 178 180 189 197 197 193 190 188 185 181 177 172 169 166 166 169 172 175 181 182 179 171 163 150 143 142 147 149 150 151 154 156 159 161 161 157 156 159 170 175 185 209 240 259 272 280 286 287 288 285 279 263
143 141 139 134 128 127 130 133 134 137 143 150 162 178 188 184 170 170 177 194 201 200 195 191 190 186 181 177 175 176 178 179 179 181 183 187 188 187 181 170 155 147 148 153 153 154 155 159 161 162 162 157 154 155 162 175 186 200 217 239 252 261 268 274 278 281 282 280 267
144 142 137 129 127 129 130 125 126 135 149 162 172 180 180 164 153 159 176 193 193 191 190 199 193 184 178 176 181 185 189 190 190 191 191 193 192 190 185 175 157 151 153 157 157 158 159 162 164 165 163 158 155 156 161 168 182 200 219 233 245 255 262 268 273 275 276 274 270
145 138 132 128 129 129 129 127 139 154 166 171 169 165 157 145 151 165 177 188 192 201 208 211 188 171 173 184 191 194 195 195 196 196 196 196 194 191 186 176 154 149 153 158 159 160 162 164 166 166 166 163 159 156 158 162 176 195 214 227 237 249 259 266 271 273 271 267 263
140 134 130 130 131 134 138 148 161 168 169 163 154 146 139 139 166 196 209 213 217 215 206 186 159 162 182 196 198 199 200 201 200 197 195 194 193 191 185 174 147 146 153 160 161 163 165 166 167 168 169 167 161 157 157 164 178 195 212 225 235 246 256 263 268 270 268 258 250
135 131 130 131 136 145 155 164 166 163 156 145 139 137 141 165 208 219 217 213 213 207 191 162 158 174 193 202 200 202 204 206 202 197 194 191 188 185 176 161 137 143 155 163 165 167 168 169 170 171 172 170 166 162 163 173 188 201 214 224 234 244 253 261 266 265 259 243 230
131 130 131 135 144 155 163 163 157 149 143 138 141 149 167 192 207 210 206 201 199 196 191 178 184 196 205 206 204 205 208 208 206 201 194 186 180 174 163 144 134 146 161 168 170 171 172 172 173 174 174 173 168 166 170 182 198 211 221 227 234 241 248 257 260 255 245 226 212
131 131 134 141 151 158 160 155 148 143 141 144 155 170 186 201 209 213 211 206 200 202 205 209 213 217 221 220 218 218 216 211 206 199 190 181 172 163 151 137 137 154 167 172 173 174 175 175 175 176 176 174 170 169 175 190 208 221 228 232 237 243 249 254 251 242 231 218 206
134 135 138 144 151 156 157 153 147 144 145 155 175 188 195 204 216 224 227 223 213 209 210 213 215 218 220 220 223 225 224 216 202 191 182 173 163 157 153 150 150 165 172 174 175 176 176 177 177 177 176 174 170 170 180 199 217 228 234 238 244 249 251 250 241 232 223 213 203
140 139 141 147 152 158 160 159 153 150 153 169 192 205 211 212 217 222 225 223 217 218 220 222 221 222 224 225 226 228 226 217 194 179 170 163 157 159 163 164 161 169 173 174 175 177 177 178 178 177 175 171 168 172 185 204 220 229 234 240 250 258 261 257 246 235 224 212 205
142 142 145 154 163 168 168 165 157 155 160 181 203 217 223 225 223 221 220 216 217 226 234 236 233 232 233 234 233 232 226 212 187 170 161 156 158 164 170 168 164 170 174 174 176 177 178 178 178 176 173 167 166 176 192 209 219 225 231 240 256 266 269 269 261 252 239 227 224
140 143 150 162 173 175 171 161 154 157 172 196 210 218 224 228 234 232 228 221 229 238 243 243 241 238 237 236 235 232 223 203 179 165 159 158 162 168 171 167 165 171 175 177 177 178 178 178 177 174 170 163 168 182 197 208 213 218 226 245 263 270 272 271 263 258 259 267 271
136 142 151 164 171 170 161 146 146 162 187 209 216 218 221 224 235 239 238 231 234 239 243 244 242 239 235 230 227 222 210 186 166 160 161 164 167 170 170 167 167 172 177 179 179 178 178 177 176 173 170 163 173 185 193 197 196 200 219 252 270 277 277 271 262 262 277 295 301
129 139 148 156 157 153 145 138 151 174 194 210 221 228 232 232 239 240 237 231 229 232 235 238 239 237 229 214 201 190 178 165 158 158 162 169 172 172 170 167 168 172 177 180 180 179 178 177 175 174 172 170 177 182 184 175 168 171 214 259 276 283 285 279 270 275 296 305 309
123 136 143 142 142 140 141 148 173 189 197 205 224 235 240 239 241 242 240 234 229 228 230 234 239 236 225 198 177 163 157 159 159 161 165 171 175 173 171 166 165 170 176 180 180 180 178 176 176 176 175 174 179 179 171 153 144 152 210 254 266 277 284 285 282 291 305 309 311
122 133 133 132 135 139 149 174 202 211 211 215 231 236 237 237 241 245 247 245 241 238 238 242 244 238 220 189 169 158 157 164 168 169 169 171 175 175 172 165 163 167 174 180 181 180 179 177 178 179 179 177 180 176 161 137 137 156 206 238 239 247 264 284 298 307 308 304 306